This is the latest recevied weather packets stored in our database for station/object KD9DOE. If no packets are shown the sender has not sent any weather packets the latest 10 day(s).
| Time | Temp. | Humidity | Pressure | Rain* | Wind** | Luminosity | Snow |
|---|---|---|---|---|---|---|---|
| 1777645803 | 7.22° C | 57% | 1017.4 hPa | 0 mm | - | 279 W/m² | - |
| 1777645501 | 7.22° C | 56% | 1017.3 hPa | 0 mm | - | 268 W/m² | - |
| 1777645196 | 7.22° C | 54% | 1017.4 hPa | 0 mm | - | 356 W/m² | - |
| 1777644892 | 7.22° C | 59% | 1017 hPa | 0 mm | - | 235 W/m² | - |
| 1777644590 | 7.22° C | 63% | 1017.4 hPa | 0 mm | - | 288 W/m² | - |
| 1777644286 | 6.67° C | 62% | 1017.3 hPa | 0 mm | - | 106 W/m² | - |
| 1777643982 | 6.67° C | 63% | 1017.3 hPa | 0 mm | - | 335 W/m² | - |
| 1777643679 | 6.67° C | 68% | 1017.3 hPa | 0 mm | - | 146 W/m² | - |
| 1777643377 | 6.11° C | 67% | 1017.1 hPa | 0 mm | - | 251 W/m² | - |
| 1777643073 | 6.11° C | 69% | 1017 hPa | 0 mm | - | 92 W/m² | - |
| 1777642770 | 6.11° C | 68% | 1016.9 hPa | 0 mm | - | 191 W/m² | - |
| 1777642467 | 5.56° C | 71% | 1016.6 hPa | 0 mm | - | 162 W/m² | - |
| 1777642163 | 6.11° C | 71% | 1016.7 hPa | 0 mm | - | 98 W/m² | - |
| 1777641861 | 5.56° C | 74% | 1016.8 hPa | 0 mm | - | 107 W/m² | - |
| 1777641561 | 5.56° C | 76% | 1016.8 hPa | 0 mm | - | 132 W/m² | - |
| 1777641261 | 5° C | 77% | 1016.8 hPa | 0 mm | - | 97 W/m² | - |
| 1777640957 | 5° C | 76% | 1016.8 hPa | 0 mm | - | 74 W/m² | - |
| 1777640655 | 5.56° C | 76% | 1016.8 hPa | 0 mm | - | 103 W/m² | - |
| 1777640350 | 5.56° C | 77% | 1016.8 hPa | 0 mm | - | 114 W/m² | - |
| 1777640048 | 5° C | 78% | 1016.6 hPa | 0 mm | - | 142 W/m² | - |
| 1777639744 | 5.56° C | 78% | 1016.9 hPa | 0 mm | - | 113 W/m² | - |
| 1777639443 | 5° C | 79% | 1016.6 hPa | 0 mm | - | 136 W/m² | - |
| 1777639143 | 5° C | 81% | 1016.7 hPa | 0 mm | - | 138 W/m² | - |
| 1777638840 | 4.44° C | 82% | 1016.8 hPa | 0 mm | - | 140 W/m² | - |
| 1777638536 | 3.89° C | 85% | 1016.8 hPa | 0 mm | - | 129 W/m² | - |
* Rain latest hour (hover to see other rain measurements)
** Current wind speed in m/s (hover to see current wind gust speed)